User: anonymous   Login
Location: Asheville, NC
(35.6000°N, 82.5500°W)
Time: 21:04:12
(UTC-05:00)
Language:

50 SAT - Orbit

View from above orbital plane
View from above orbital plane
View from above satellite
View from above satellite

Ground track
Ground track

The orbit data is extracted from the following two-line orbital elements,

1 39436U 13066W   18021.28994504  .00052395  00000-0  74786-3 0  9993
2 39436  97.7123 145.6093 0005440   3.9031 356.2264 15.56104070230320
Epoch (UTC): 21 January 2018 06:57:31
Eccentricity: 0.0005440
inclination: 97.7123°
perigee height: 395 km
apogee height: 402 km
right ascension of ascending node: 145.6093°
argument of perigee: 3.9031°
revolutions per day: 15.56104070
mean anomaly at epoch: 356.2264°
orbit number at epoch: 23032

The dashed part of the orbit path shows where the satellite is in the earth's shadow,  

DLR